• Join FlightAware (Why Join?)
  • Login
  • US Flag 
05:47AM EDT


 

Airport Tracker/Info


-or-


 

Live Flight TrackerFlight Track Log ✈ SWA499 ✈ 22-Apr-2013 ✈ KSLC - KDEN

Flight Track Log - Related Links

Times and Time Zones

All times are in EDT time to prevent confusion due to time zone crossing. See the SWA499 flight status page for this flight to view local times or setup timezone preferences in your user account.

Time Position Orientation Groundspeed Altitude Reporting Facility
EDT Latitude Longitude Course Direction KTS MPH feet Rate Location/Type
10:24AM 40.8014 -111.9642 355° North 156 180 4,900  Level Salt Lake Center
10:25AM 40.8764 -111.9725 355° North 211 243 7,400 1,980 Climbing Salt Lake Center
10:26AM 40.9108 -111.9769 354° North 229 264 8,700 3,000 Climbing Salt Lake Center
10:27AM 40.9769 -111.9467 19° North 283 326 11,900 2,580 Climbing Salt Lake Center
10:28AM 40.9683 -111.8369 96° East 340 391 14,000 2,160 Climbing Salt Lake Center
10:29AM 40.9417 -111.7058 105° East 386 444 16,400 2,520 Climbing Salt Lake Center
10:30AM 40.9200 -111.5603 101° East 413 475 19,200 2,580 Climbing Salt Lake Center
10:31AM 40.9100 -111.4056 95° East 424 488 21,700 2,220 Climbing Salt Lake Center
10:32AM 40.8861 -111.2061 99° East 460 529 23,800 2,040 Climbing Salt Lake Center
10:33AM 40.8647 -111.0247 99° East 497 572 26,000 1,920 Climbing Salt Lake Center
10:34AM 40.8425 -110.8414 99° East 506 582 27,800 1,560 Climbing Salt Lake Center
10:35AM 40.8186 -110.6494 99° East 528 608 29,200 1,440 Climbing Salt Lake Center
10:36AM 40.7942 -110.4467 99° East 548 631 30,800 1,740 Climbing Salt Lake Center
10:37AM 40.7689 -110.2547 100° East 553 636 32,800 2,160 Climbing Salt Lake Center
10:38AM 40.7436 -110.0528 99° East 545 627 35,300 2,040 Climbing Salt Lake Center
10:39AM 40.7281 -109.8425 96° East 520 598 37,000 780 Climbing Salt Lake Center
10:40AM 40.7153 -109.6617 95° East 518 596 37,000  Level Salt Lake Center
10:41AM 40.6997 -109.4500 95° East 518 596 37,000  Level Salt Lake Center
10:42AM 40.6864 -109.2714 96° East 512 589 37,000  Level Salt Lake Center
10:43AM 40.6714 -109.0825 96° East 513 590 37,000  Level Salt Lake Center
10:44AM 40.6575 -108.9025 96° East 518 596 37,000  Level Salt Lake Center
10:45AM 40.6431 -108.7247 96° East 519 597 37,000  Level Denver Center
10:46AM 40.6289 -108.5419 96° East 522 601 37,000  Level Denver Center
10:47AM 40.6128 -108.3611 97° East 520 598 37,000  Level Denver Center
10:48AM 40.6022 -108.1469 94° East 524 603 37,000  Level Denver Center
10:49AM 40.6367 -107.9733 75° East 516 594 37,000  Level Denver Center
10:50AM 40.7233 -107.8111 55° Northeast 493 567 37,000  Level Denver Center
10:51AM 40.8047 -107.6758 51° Northeast 490 564 37,000  Level Denver Center
10:52AM 40.8514 -107.4744 73° East 532 612 37,000  Level Denver Center
10:53AM 40.8233 -107.2947 102° East 528 608 37,000 -180 Level Denver Center
10:54AM 40.7703 -107.0883 109° East 531 611 36,700 -600 Descending Denver Center
10:55AM 40.7292 -106.9175 108° East 532 612 35,800 -840 Descending Denver Center
10:56AM 40.6831 -106.7314 108° East 533 613 35,000 -660 Descending Denver Center
10:57AM 40.6386 -106.5494 108° East 522 601 34,500 -1,500 Descending Denver Center
10:58AM 40.5900 -106.3533 108° East 524 603 31,900 -2,580 Descending Denver Center
10:59AM 40.5394 -106.1478 108° East 522 601 29,200 -2,280 Descending Denver Center
11:00AM 40.4978 -105.9836 108° East 515 593 27,300 -2,040 Descending Denver Center
11:01AM 40.4489 -105.7897 108° East 476 548 25,000 -1,920 Descending Denver Center
11:03AM 40.4097 -105.6414 109° East 434 499 23,300 -1,620 Descending Denver Center
11:04AM 40.3731 -105.5028 109° East 403 464 21,700 -1,500 Descending Denver Center
11:06AM 40.2686 -105.2561 119° Southeast 366 421 18,700 -1,260 Descending Denver Center
11:07AM 40.2997 -105.1189 73° East 364 419 17,900 -840 Descending Denver Center
11:08AM 40.3225 -105.0050 75° East 329 379 17,000 -960 Descending Denver Center
11:09AM 40.3028 -104.8914 103° East 320 368 16,000 -1,020 Descending Denver Center
11:10AM 40.2278 -104.8353 150° Southeast 287 330 15,000 -540 Descending Denver Center
11:11AM 40.1569 -104.7892 154° Southeast 286 329 15,000  Level Denver Center
11:12AM 40.0781 -104.7817 176° South 263 303 15,000 -660 Level Denver Center
11:13AM 40.0039 -104.7822 180° South 265 305 13,700 -1,200 Descending Denver Center
11:14AM 39.9250 -104.7872 183° South 264 304 12,600 -840 Descending Denver Center
11:15AM 39.8569 -104.7917 183° South 251 289 12,000 -300 Descending Denver Center
11:16AM 39.7886 -104.7936 181° South 233 268 12,000 -480 Level Denver Center
11:17AM 39.7244 -104.7925 179° South 232 267 11,100 -1,140 Descending Denver Center
11:18AM 39.6536 -104.7928 180° South 236 272 9,700 -1,020 Descending Denver Center
11:19AM 39.6192 -104.7414 131° Southeast 235 270 9,000 -360 Descending Denver Center
11:20AM 39.6306 -104.6622 79° East 215 247 9,000 -300 Level Denver Center
11:21AM 39.6789 -104.6622 360° North 179 206 8,400 -840 Descending Denver Center
11:22AM 39.7339 -104.6619 360° North 183 211 7,300 -1,020 Descending Denver Center
11:23AM 39.7792 -104.6611 North 168 193 6,400 -840 Descending Denver Center
11:24AM 39.8242 -104.6614 360° North 153 176 5,600 -780 Descending Denver Center
11:26AM 39.8500 -104.6667 North  Level FlightAware Approximate
11:33AM 39.8617 -104.6732 North  Level Estimated
11:34AM 39.8617 -104.6732 North  Level Estimated
11:35AM 39.8617 -104.6732 North  Level Estimated
11:36AM 39.8617 -104.6732 North  Level Estimated